Weather History for CYYG - May, 2013

Change the Weather History Date:

Tuesday, May 14, 2013

  Actual Average Record
Temperature  
Mean Temperature 44 °F -  
Max Temperature 48 °F 62 °F 71 °F (1998)
Min Temperature 41 °F 44 °F 29 °F (2014)
Degree Days  
Heating Degree Days 20    
Moisture  
Dew Point 39 °F    
Average Humidity 81    
Maximum Humidity 100    
Minimum Humidity 59    
Precipitation  
Precipitation 0.31 in 0.12 in - ()
Sea Level Pressure  
Sea Level Pressure 29.95 in    
Wind  
Wind Speed 8 mph ()    
Max Wind Speed 16 mph    
Max Gust Speed 24 mph    
Visibility 12.9 miles    
Events Rain    
Averages and records for this station are not official NWS values.
T = Trace of Precipitation, MM = Missing Value Source: Averaged Metar Reports

Daily Weather History Graph

Daily Weather History Graph

Search for Another Location

Airport or City:

Trip Planner

Search our weather history database for the weather conditions in past years. The results will help you decide how hot, cold, wet, or windy it might be!

Date:

Astronomy

May. 14, 2013 Rise Set
Actual Time 5:40 AM ADT 8:38 PM ADT
Civil Twilight 5:05 AM ADT 9:13 PM ADT
Nautical Twilight 4:20 AM ADT 9:58 PM ADT
Astronomical Twilight 3:26 AM ADT 10:53 PM ADT
Moon 9:16 AM ADT (5/14) No Moon Set
Length of Visible Light 16h 08m
Length of Day
14h 57m
Waxing Crescent, 18% of the Moon is Illuminated
May 14
Waxing Crescent
May 18
First Quarter
May 25
Full
May 31
Last Quarter
Jun 8
New

Hourly Weather History & Observations

Time (ADT) Temp. Windchill Dew Point Humidity Pressure Visibility Wind Dir Wind Speed Gust Speed Precip Events Conditions
12:00 AM 44.6 °F 38.8 °F 32.0 °F 61% 30.01 in 15.0 mi West 11.5 mph - N/A   Mostly Cloudy
1:00 AM 44.6 °F 39.2 °F 33.8 °F 66% 30.04 in 15.0 mi WSW 10.4 mph - N/A   Mostly Cloudy
2:00 AM 44.6 °F 39.2 °F 35.6 °F 71% 30.04 in 15.0 mi SW 10.4 mph - N/A   Mostly Cloudy
3:00 AM 45 °F - 35 °F 59% 30.02 in 15 mi SW 9.2 mph - -   Clear
3:00 AM 44.6 °F 40.2 °F 35.6 °F 71% 30.02 in 15.0 mi SW 8.1 mph - N/A   Mostly Cloudy
4:00 AM 44.6 °F 41.4 °F 35.6 °F 71% 29.99 in 15.0 mi SW 5.8 mph - N/A   Overcast
5:00 AM 44.6 °F 40.7 °F 35.6 °F 71% 30.01 in 15.0 mi WSW 6.9 mph - N/A   Overcast
6:00 AM 44.6 °F 43.1 °F 37.4 °F 76% 30.01 in 15.0 mi SSW 3.5 mph - N/A   Overcast
7:00 AM 44.6 °F - 37.4 °F 76% 30.02 in 15.0 mi SSE 2.3 mph - N/A   Overcast
8:00 AM 46.4 °F 45.2 °F 37.4 °F 71% 30.01 in 15.0 mi WNW 3.5 mph - N/A   Overcast
9:00 AM 46 °F - 38 °F 65% 29.99 in 15 mi NNE 6.9 mph - -   Overcast
9:00 AM 46.4 °F 42.9 °F 37.4 °F 71% 29.99 in 15.0 mi NNE 6.9 mph - N/A   Overcast
10:00 AM 46.4 °F 41.1 °F 37.4 °F 71% 29.99 in 20.0 mi NE 11.5 mph - N/A   Overcast
11:00 AM 46.4 °F 41.9 °F 39.2 °F 76% 29.97 in 15.0 mi NNE 9.2 mph - N/A   Overcast
12:00 PM 46.4 °F 42.4 °F 39.2 °F 76% 29.97 in 15.0 mi NE 8.1 mph - N/A   Overcast
1:00 PM 48.2 °F - 39.2 °F 71% 29.94 in 15.0 mi ENE 6.9 mph - N/A   Overcast
2:00 PM 46.4 °F 42.4 °F 37.4 °F 71% 29.92 in 15.0 mi ENE 8.1 mph - N/A   Overcast
2:31 PM 46.4 °F 42.4 °F 39.2 °F 76% 29.94 in 15.0 mi ENE 8.1 mph - N/A Rain Light Rain Showers
3:00 PM 44.6 °F 40.7 °F 42.8 °F 93% 29.93 in 12.0 mi NE 6.9 mph - N/A   Overcast
4:00 PM 44.6 °F 37.8 °F 41.0 °F 87% 29.91 in 15.0 mi NNE 15.0 mph 21.9 mph N/A Rain Light Rain Showers
5:00 PM 44.6 °F 38.4 °F 41.0 °F 87% 29.90 in 12.0 mi North 12.7 mph 18.4 mph N/A Rain Light Rain Showers
6:00 PM 42.8 °F 36.6 °F 41.0 °F 93% 29.88 in 15.0 mi NNW 11.5 mph 17.3 mph N/A Rain Light Rain Showers
6:29 PM 42.8 °F 35.8 °F 41.0 °F 93% 29.89 in 4.0 mi NW 13.8 mph - N/A   Light Drizzle
7:00 PM 41.0 °F 35.2 °F 41.0 °F 100% 29.90 in 3.0 mi NNW 9.2 mph - N/A   Light Drizzle
7:28 PM 41.0 °F 33.9 °F 41.0 °F 100% 29.89 in 4.0 mi North 12.7 mph 19.6 mph N/A Rain Light Rain
8:00 PM 41.0 °F 33.9 °F 41.0 °F 100% 29.89 in 10.0 mi North 12.7 mph 20.7 mph N/A Rain Light Rain
9:00 PM 41 °F - 41 °F 98% 29.86 in 10 mi North 13.8 mph - - Rain Light Rain
9:00 PM 41.0 °F 34.3 °F 41.0 °F 100% 29.86 in 10.0 mi North 11.5 mph 21.9 mph N/A Rain Light Rain
10:00 PM 41.0 °F 33.1 °F 41.0 °F 100% 29.86 in 12.0 mi North 15.0 mph 21.9 mph N/A Rain Light Rain
11:00 PM 41.0 °F 32.8 °F 41.0 °F 100% 29.81 in 6.0 mi North 16.1 mph 24.2 mph N/A Rain Light Rain